Time,TemperatureF,DewpointF,PressureIn,WindDirection,WindDirectionDegrees,WindSpeedMPH,WindSpeedGustMPH,Humidity,HourlyPrecipIn,Conditions,Clouds,dailyrainin,SoftwareType,DateUTC
2013-03-07 00:07:00,27.3,25.0,30.53,SW,229,1.0,3.0,90,0.00,,,0.00,weatherlink.com 1.10,2013-03-07 05:07:00,
2013-03-07 00:22:00,26.6,24.0,30.52,SW,229,0.0,0.0,91,0.00,,,0.00,weatherlink.com 1.10,2013-03-07 05:22:00,
2013-03-07 00:37:00,26.2,24.0,30.53,SW,228,3.0,3.0,91,0.00,,,0.00,weatherlink.com 1.10,2013-03-07 05:37:00,
2013-03-07 00:52:00,26.1,24.0,30.53,WSW,238,0.0,2.0,91,0.00,,,0.00,weatherlink.com 1.10,2013-03-07 05:52:00,
2013-03-07 01:07:00,26.2,24.0,30.53,WSW,255,0.0,3.0,92,0.00,,,0.00,weatherlink.com 1.10,2013-03-07 06:07:00,
2013-03-07 01:22:00,26.3,24.0,30.55,SW,229,0.0,2.0,92,0.00,,,0.00,weatherlink.com 1.10,2013-03-07 06:22:00,
2013-03-07 01:37:00,26.1,24.0,30.55,WSW,257,1.0,1.0,92,0.00,,,0.00,weatherlink.com 1.10,2013-03-07 06:37:00,
2013-03-07 01:52:00,26.1,24.0,30.56,WSW,250,0.0,3.0,93,0.00,,,0.00,weatherlink.com 1.10,2013-03-07 06:52:00,
2013-03-07 02:07:00,25.9,24.0,30.56,NNE,30,0.0,0.0,93,0.00,,,0.00,weatherlink.com 1.10,2013-03-07 07:07:00,
2013-03-07 02:22:00,25.6,24.0,30.57,NNE,30,0.0,1.0,93,0.00,,,0.00,weatherlink.com 1.10,2013-03-07 07:22:00,
2013-03-07 02:37:00,25.5,24.0,30.57,SW,226,3.0,3.0,93,0.00,,,0.00,weatherlink.com 1.10,2013-03-07 07:37:00,
2013-03-07 02:52:00,25.5,24.0,30.57,SW,236,3.0,4.0,94,0.00,,,0.00,weatherlink.com 1.10,2013-03-07 07:52:00,
2013-03-07 03:07:00,25.7,24.0,30.57,WSW,239,0.0,3.0,94,0.00,,,0.00,weatherlink.com 1.10,2013-03-07 08:07:00,
2013-03-07 03:22:00,25.7,24.0,30.57,WSW,238,0.0,1.0,94,0.00,,,0.00,weatherlink.com 1.10,2013-03-07 08:22:00,
2013-03-07 03:38:00,25.5,24.0,30.58,WSW,256,0.0,1.0,95,0.00,,,0.00,weatherlink.com 1.10,2013-03-07 08:38:00,
2013-03-07 03:53:00,24.9,24.0,30.57,ENE,71,0.0,1.0,94,0.00,,,0.00,weatherlink.com 1.10,2013-03-07 08:53:00,
2013-03-07 04:08:00,24.7,23.0,30.58,ENE,70,0.0,1.0,94,0.00,,,0.00,weatherlink.com 1.10,2013-03-07 09:08:00,
2013-03-07 04:23:00,24.6,23.0,30.58,SW,235,0.0,1.0,95,0.00,,,0.00,weatherlink.com 1.10,2013-03-07 09:23:00,
2013-03-07 04:38:00,25.0,24.0,30.60,SW,235,1.0,2.0,95,0.00,,,0.00,weatherlink.com 1.10,2013-03-07 09:38:00,
2013-03-07 04:53:00,25.3,24.0,30.61,SW,236,0.0,3.0,95,0.00,,,0.00,weatherlink.com 1.10,2013-03-07 09:53:00,
2013-03-07 05:08:00,25.3,24.0,30.60,SW,236,0.0,0.0,95,0.00,,,0.00,weatherlink.com 1.10,2013-03-07 10:08:00,
2013-03-07 05:23:00,25.4,24.0,30.60,SW,236,0.0,0.0,95,0.00,,,0.00,weatherlink.com 1.10,2013-03-07 10:23:00,
2013-03-07 05:38:00,25.4,24.0,30.60,WSW,241,0.0,1.0,95,0.00,,,0.00,weatherlink.com 1.10,2013-03-07 10:38:00,
2013-03-07 05:53:00,25.1,24.0,30.59,WSW,242,0.0,1.0,95,0.00,,,0.00,weatherlink.com 1.10,2013-03-07 10:53:00,
2013-03-07 06:08:00,24.7,24.0,30.60,WSW,240,2.0,2.0,95,0.00,,,0.00,weatherlink.com 1.10,2013-03-07 11:08:00,
2013-03-07 06:23:00,24.4,23.0,30.60,WSW,243,2.0,2.0,95,0.00,,,0.00,weatherlink.com 1.10,2013-03-07 11:23:00,
2013-03-07 06:38:00,24.8,24.0,30.61,WSW,257,0.0,3.0,96,0.00,,,0.00,weatherlink.com 1.10,2013-03-07 11:38:00,
2013-03-07 06:53:00,25.1,24.0,30.61,WSW,257,0.0,1.0,95,0.00,,,0.00,weatherlink.com 1.10,2013-03-07 11:53:00,
2013-03-07 07:08:00,25.3,24.0,30.62,WSW,257,1.0,1.0,95,0.00,,,0.00,weatherlink.com 1.10,2013-03-07 12:08:00,
2013-03-07 07:23:00,25.6,24.0,30.63,WSW,238,2.0,3.0,95,0.00,,,0.00,weatherlink.com 1.10,2013-03-07 12:23:00,
2013-03-07 07:38:00,25.7,25.0,30.64,WSW,255,0.0,1.0,95,0.00,,,0.00,weatherlink.com 1.10,2013-03-07 12:38:00,
2013-03-07 07:53:00,26.0,25.0,30.64,WSW,256,0.0,0.0,95,0.00,,,0.00,weatherlink.com 1.10,2013-03-07 12:53:00,
2013-03-07 08:08:00,26.8,26.0,30.64,WSW,256,0.0,0.0,95,0.00,,,0.00,weatherlink.com 1.10,2013-03-07 13:08:00,
2013-03-07 08:38:00,28.1,27.0,30.64,WSW,255,0.0,1.0,94,0.00,,,0.00,weatherlink.com 1.10,2013-03-07 13:38:00,
2013-03-07 08:53:00,27.6,26.0,30.64,WSW,250,3.0,3.0,93,0.00,,,0.00,weatherlink.com 1.10,2013-03-07 13:53:00,
2013-03-07 09:08:00,28.1,26.0,30.64,WSW,243,2.0,3.0,93,0.00,,,0.00,weatherlink.com 1.10,2013-03-07 14:08:00,
2013-03-07 09:23:00,29.0,27.0,30.64,WSW,257,1.0,3.0,91,0.00,,,0.00,weatherlink.com 1.10,2013-03-07 14:23:00,
2013-03-07 09:38:00,29.4,27.0,30.64,WSW,257,1.0,2.0,89,0.00,,,0.00,weatherlink.com 1.10,2013-03-07 14:38:00,
2013-03-07 09:53:00,29.7,27.0,30.65,WSW,242,0.0,3.0,89,0.00,,,0.00,weatherlink.com 1.10,2013-03-07 14:53:00,
2013-03-07 10:08:00,30.3,27.0,30.65,SW,231,0.0,2.0,87,0.00,,,0.00,weatherlink.com 1.10,2013-03-07 15:08:00,
2013-03-07 10:23:00,31.8,28.0,30.66,WSW,256,1.0,2.0,87,0.00,,,0.00,weatherlink.com 1.10,2013-03-07 15:23:00,
2013-03-07 10:38:00,32.6,28.0,30.65,NNE,32,0.0,2.0,84,0.00,,,0.00,weatherlink.com 1.10,2013-03-07 15:38:00,
2013-03-07 10:53:00,34.4,30.0,30.65,West,263,0.0,4.0,84,0.00,,,0.00,weatherlink.com 1.10,2013-03-07 15:53:00,
2013-03-07 11:08:00,35.7,30.0,30.65,NNE,31,1.0,2.0,80,0.00,,,0.00,weatherlink.com 1.10,2013-03-07 16:08:00,
2013-03-07 11:24:00,36.9,31.0,30.66,WSW,245,1.0,5.0,78,0.00,,,0.00,weatherlink.com 1.10,2013-03-07 16:24:00,
2013-03-07 11:39:00,38.9,33.0,30.65,WSW,256,0.0,4.0,78,0.00,,,0.00,weatherlink.com 1.10,2013-03-07 16:39:00,
2013-03-07 11:54:00,41.4,34.0,30.65,WSW,257,1.0,1.0,76,0.00,,,0.00,weatherlink.com 1.10,2013-03-07 16:54:00,
2013-03-07 12:09:00,42.8,36.0,30.64,WSW,249,0.0,2.0,78,0.01,,,0.01,weatherlink.com 1.10,2013-03-07 17:09:00,
2013-03-07 12:24:00,43.3,33.0,30.64,NE,56,2.0,3.0,68,0.01,,,0.01,weatherlink.com 1.10,2013-03-07 17:24:00,
2013-03-07 12:39:00,44.3,35.0,30.63,WSW,256,0.0,3.0,71,0.01,,,0.01,weatherlink.com 1.10,2013-03-07 17:39:00,
2013-03-07 12:54:00,46.7,35.0,30.62,WSW,253,0.0,3.0,65,0.01,,,0.01,weatherlink.com 1.10,2013-03-07 17:54:00,
2013-03-07 13:09:00,46.3,33.0,30.61,SW,226,1.0,4.0,61,0.00,,,0.01,weatherlink.com 1.10,2013-03-07 18:09:00,
2013-03-07 13:24:00,46.9,35.0,30.60,SW,226,1.0,4.0,63,0.00,,,0.01,weatherlink.com 1.10,2013-03-07 18:24:00,
2013-03-07 13:39:00,48.6,36.0,30.59,SW,221,1.0,4.0,63,0.00,,,0.01,weatherlink.com 1.10,2013-03-07 18:39:00,
2013-03-07 13:54:00,50.3,35.0,30.58,West,262,1.0,5.0,56,0.00,,,0.01,weatherlink.com 1.10,2013-03-07 18:54:00,
2013-03-07 14:09:00,52.3,39.0,30.57,SW,214,0.0,2.0,60,0.00,,,0.01,weatherlink.com 1.10,2013-03-07 19:09:00,
2013-03-07 14:24:00,52.3,35.0,30.57,SW,232,4.0,6.0,53,0.00,,,0.01,weatherlink.com 1.10,2013-03-07 19:24:00,
2013-03-07 14:39:00,51.8,37.0,30.57,WSW,246,3.0,4.0,57,0.00,,,0.01,weatherlink.com 1.10,2013-03-07 19:39:00,
2013-03-07 14:54:00,50.3,34.0,30.57,West,262,7.0,8.0,54,0.00,,,0.01,weatherlink.com 1.10,2013-03-07 19:54:00,
2013-03-07 15:09:00,50.6,34.0,30.57,SW,219,8.0,10.0,54,0.00,,,0.01,weatherlink.com 1.10,2013-03-07 20:09:00,
2013-03-07 15:24:00,50.1,33.0,30.57,SW,235,8.0,9.0,53,0.00,,,0.01,weatherlink.com 1.10,2013-03-07 20:24:00,
2013-03-07 15:39:00,50.7,34.0,30.57,SW,233,6.0,9.0,53,0.00,,,0.01,weatherlink.com 1.10,2013-03-07 20:39:00,
2013-03-07 15:54:00,50.7,35.0,30.57,WSW,255,1.0,5.0,55,0.00,,,0.01,weatherlink.com 1.10,2013-03-07 20:54:00,
2013-03-07 16:09:00,52.4,35.0,30.57,West,260,0.0,3.0,52,0.00,,,0.01,weatherlink.com 1.10,2013-03-07 21:09:00,
2013-03-07 16:24:00,52.2,33.0,30.57,SW,231,3.0,6.0,49,0.00,,,0.01,weatherlink.com 1.10,2013-03-07 21:24:00,
2013-03-07 16:39:00,51.0,35.0,30.57,West,260,0.0,5.0,55,0.00,,,0.01,weatherlink.com 1.10,2013-03-07 21:39:00,
2013-03-07 16:54:00,49.9,34.0,30.57,SW,235,3.0,8.0,54,0.00,,,0.01,weatherlink.com 1.10,2013-03-07 21:54:00,
2013-03-07 17:09:00,49.4,34.0,30.57,West,259,3.0,6.0,55,0.00,,,0.01,weatherlink.com 1.10,2013-03-07 22:09:00,
2013-03-07 17:24:00,47.5,33.0,30.58,SW,233,3.0,6.0,58,0.00,,,0.01,weatherlink.com 1.10,2013-03-07 22:24:00,
2013-03-07 17:39:00,46.6,33.0,30.58,West,259,2.0,5.0,60,0.00,,,0.01,weatherlink.com 1.10,2013-03-07 22:39:00,
2013-03-07 17:54:00,45.3,32.0,30.58,WSW,253,4.0,6.0,61,0.00,,,0.01,weatherlink.com 1.10,2013-03-07 22:54:00,
2013-03-07 18:09:00,44.2,32.0,30.58,WSW,240,2.0,4.0,63,0.00,,,0.01,weatherlink.com 1.10,2013-03-07 23:09:00,
2013-03-07 18:24:00,43.0,32.0,30.59,WSW,252,4.0,4.0,66,0.00,,,0.01,weatherlink.com 1.10,2013-03-07 23:24:00,
2013-03-07 18:39:00,41.5,32.0,30.59,WSW,249,2.0,4.0,68,0.00,,,0.01,weatherlink.com 1.10,2013-03-07 23:39:00,
2013-03-07 18:54:00,40.3,31.0,30.59,WSW,249,2.0,3.0,69,0.00,,,0.01,weatherlink.com 1.10,2013-03-07 23:54:00,
2013-03-07 19:09:00,39.2,31.0,30.59,SW,233,0.0,0.0,72,0.00,,,0.01,weatherlink.com 1.10,2013-03-08 00:09:00,
2013-03-07 19:24:00,37.8,30.0,30.60,SW,233,0.0,0.0,74,0.00,,,0.01,weatherlink.com 1.10,2013-03-08 00:24:00,
2013-03-07 19:39:00,36.6,30.0,30.60,SW,233,0.0,0.0,77,0.00,,,0.01,weatherlink.com 1.10,2013-03-08 00:39:00,
2013-03-07 19:54:00,36.4,30.0,30.61,SW,233,0.0,1.0,78,0.00,,,0.01,weatherlink.com 1.10,2013-03-08 00:54:00,
2013-03-07 20:09:00,36.0,30.0,30.60,SW,233,0.0,1.0,78,0.00,,,0.01,weatherlink.com 1.10,2013-03-08 01:09:00,
2013-03-07 20:24:00,35.2,30.0,30.61,SW,233,0.0,1.0,80,0.00,,,0.01,weatherlink.com 1.10,2013-03-08 01:24:00,
2013-03-07 20:39:00,34.7,29.0,30.61,SW,233,0.0,1.0,81,0.00,,,0.01,weatherlink.com 1.10,2013-03-08 01:39:00,
2013-03-07 20:54:00,34.4,29.0,30.61,SW,233,0.0,0.0,82,0.00,,,0.01,weatherlink.com 1.10,2013-03-08 01:54:00,
2013-03-07 21:09:00,33.4,29.0,30.61,SW,233,0.0,0.0,83,0.00,,,0.01,weatherlink.com 1.10,2013-03-08 02:09:00,
2013-03-07 21:24:00,32.8,29.0,30.61,SW,233,0.0,0.0,84,0.00,,,0.01,weatherlink.com 1.10,2013-03-08 02:24:00,
2013-03-07 21:39:00,32.2,29.0,30.62,SW,233,0.0,0.0,86,0.00,,,0.01,weatherlink.com 1.10,2013-03-08 02:39:00,
2013-03-07 21:54:00,31.9,28.0,30.62,SW,233,0.0,0.0,86,0.00,,,0.01,weatherlink.com 1.10,2013-03-08 02:54:00,
2013-03-07 22:09:00,31.4,28.0,30.62,SW,233,0.0,0.0,87,0.00,,,0.01,weatherlink.com 1.10,2013-03-08 03:09:00,
2013-03-07 22:24:00,31.1,28.0,30.62,SW,233,0.0,0.0,88,0.00,,,0.01,weatherlink.com 1.10,2013-03-08 03:24:00,
2013-03-07 22:39:00,31.0,28.0,30.62,SW,233,0.0,0.0,89,0.00,,,0.01,weatherlink.com 1.10,2013-03-08 03:39:00,
2013-03-07 22:54:00,30.6,28.0,30.62,SW,233,0.0,0.0,89,0.00,,,0.01,weatherlink.com 1.10,2013-03-08 03:54:00,
2013-03-07 23:09:00,30.4,28.0,30.62,SW,233,0.0,0.0,90,0.00,,,0.01,weatherlink.com 1.10,2013-03-08 04:09:00,
2013-03-07 23:24:00,30.1,28.0,30.62,SW,233,0.0,0.0,90,0.00,,,0.01,weatherlink.com 1.10,2013-03-08 04:24:00,
2013-03-07 23:39:00,29.9,27.0,30.62,NE,45,0.0,1.0,90,0.00,,,0.01,weatherlink.com 1.10,2013-03-08 04:39:00,
2013-03-07 23:55:00,29.5,27.0,30.61,NE,44,0.0,1.0,91,0.00,,,0.01,weatherlink.com 1.10,2013-03-08 04:55:00,